Theta_e
348 353 354 353 351 350 350 348 349 349 348 348 349 350 350 351 351 352 352 352 352 353 354 354 354 353 353 353 353 354 355 357 357 356 357 358 356 358 357 358 359 357 357
351 354 353 352 350 350 349 347 348 349 349 349 349 349 349 349 350 350 350 350 350 349 349 350 351 351 352 351 351 351 352 353 354 355 355 355 357 355 356 356 358 358 358
351 354 354 352 351 351 348 348 349 349 348 348 347 345 345 344 344 344 342 341 341 343 345 345 345 347 348 350 350 349 350 350 351 351 352 352 353 356 353 353 355 356 358
351 354 352 351 349 347 347 345 344 343 342 342 341 338 338 337 336 336 335 335 336 335 335 336 337 339 341 343 344 346 348 349 349 350 349 348 347 353 354 352 353 354 357
350 352 351 349 346 344 343 342 342 341 340 339 337 335 335 335 335 334 334 334 335 335 335 334 333 333 334 335 336 338 340 343 346 348 344 345 348 348 349 353 353 352 355
348 347 347 346 343 341 340 339 339 338 338 337 335 334 333 333 333 333 333 333 334 334 334 335 335 334 333 332 332 333 334 337 340 342 345 346 347 344 343 351 354 353 355
344 345 342 343 342 340 338 337 336 336 335 332 331 330 330 330 331 332 332 333 333 333 334 335 334 334 334 334 334 333 333 333 334 338 341 344 346 340 342 347 353 354 354
344 344 340 341 340 338 337 336 335 334 332 331 332 333 332 331 331 332 332 332 334 331 333 333 333 333 333 332 333 333 333 334 332 333 336 339 342 339 341 343 350 353 354
343 340 340 339 339 336 335 335 334 333 332 331 331 330 330 331 330 331 331 331 333 332 332 332 331 333 334 333 330 331 331 331 325 329 331 331 338 334 339 343 344 349 352
338 336 337 337 337 337 335 334 334 333 332 331 331 329 326 328 328 327 329 331 330 331 329 330 330 329 328 327 327 329 330 331 326 324 325 332 335 335 338 342 345 346 350
334 335 334 333 335 336 334 335 335 334 333 333 331 328 328 330 330 328 328 327 328 329 329 329 327 327 328 329 327 326 329 326 325 325 325 332 334 339 343 345 346 351 350
332 333 334 331 330 333 332 333 332 332 337 336 334 333 331 332 331 326 327 324 326 326 327 326 324 326 327 325 327 328 326 326 326 326 326 330 331 335 339 343 347 351 352
334 335 333 332 333 332 328 332 333 333 336 334 335 333 335 331 333 331 328 328 328 327 327 327 327 326 326 326 325 325 325 325 325 326 326 328 330 333 335 339 344 349 352
333 336 333 330 331 331 332 331 333 333 334 331 335 334 335 330 333 331 328 328 330 329 328 327 326 327 327 327 325 325 325 325 324 325 328 326 328 331 333 335 340 345 351
334 336 335 331 331 330 329 335 336 335 333 333 331 334 332 330 330 330 329 327 327 328 326 326 325 325 326 325 325 325 324 324 324 324 325 332 328 329 331 332 336 340 346
336 338 335 331 333 332 333 335 335 336 335 333 333 333 332 332 331 329 329 328 327 328 327 326 325 324 324 324 324 324 324 324 324 325 325 326 333 329 330 331 331 337 341
338 337 334 333 333 334 334 335 333 333 333 333 334 335 335 335 334 334 330 328 327 328 330 328 326 326 324 324 324 324 324 325 324 324 326 326 327 331 329 330 331 332 337
337 334 334 331 331 334 335 335 333 333 334 333 334 335 336 337 337 333 329 329 329 329 327 326 325 324 324 324 324 324 324 324 323 324 325 325 326 325 331 330 330 332 333
336 334 333 334 332 334 336 336 336 337 335 333 335 335 337 336 334 332 330 330 332 329 327 326 325 325 323 323 323 323 323 323 322 322 324 325 327 327 325 333 330 329 331
335 334 334 334 335 335 334 335 333 333 334 336 335 334 336 334 333 334 332 332 332 329 327 326 327 326 324 323 321 322 322 323 322 323 324 325 326 327 327 328 329 328 330
335 335 336 336 338 336 332 331 333 334 332 332 333 335 334 333 333 334 331 330 331 330 329 328 327 326 324 325 320 320 320 322 323 323 325 324 325 326 326 327 328 326 328
335 336 338 338 339 337 335 336 335 334 329 329 328 331 331 330 330 330 331 327 329 327 328 329 329 325 322 324 319 318 312 316 319 323 323 323 324 325 325 325 326 328 329
336 337 338 339 339 339 340 337 336 333 331 324 324 323 325 327 326 326 326 326 327 328 324 329 325 326 322 323 325 318 311 309 314 319 322 322 324 324 324 325 325 326 327
336 338 339 339 340 340 341 335 334 321 318 319 322 323 325 327 326 325 325 325 326 324 324 325 329 327 327 321 324 321 322 319 312 310 320 321 323 323 325 324 324 325 327
337 339 339 340 340 339 338 335 326 326 321 322 322 325 327 327 325 324 325 325 324 322 324 326 327 327 325 325 323 321 320 318 319 315 310 313 320 321 322 324 325 325 326
337 336 336 337 337 335 333 332 333 331 328 323 322 322 321 321 321 324 323 323 324 324 323 324 326 327 326 326 323 322 319 316 315 317 313 314 316 318 321 322 323 325 326
Wind_Speed
9 12 12 13 12 12 12 12 12 12 12 12 13 13 13 13 13 14 13 13 12 14 15 14 13 12 13 12 12 12 13 12 11 7 5 6 4 4 3 3 7 9 10
12 12 12 13 11 12 12 11 12 11 11 12 12 12 13 13 13 14 14 15 14 13 13 13 13 11 11 10 10 11 11 11 10 9 2 7 7 3 1 1 7 10 10
11 12 12 12 12 12 11 11 11 12 12 12 13 12 12 12 12 12 12 12 12 12 11 12 11 11 11 11 10 9 9 9 8 7 8 6 6 6 1 1 3 5 8
11 10 11 12 12 11 11 10 11 11 11 11 11 11 11 11 10 10 11 11 11 10 9 9 9 10 9 9 9 9 9 8 7 7 10 4 2 10 4 2 1 3 5
11 11 12 12 11 11 10 10 10 10 10 9 10 10 9 9 9 9 10 10 11 11 11 9 8 8 8 7 8 7 7 7 8 10 6 4 5 11 4 3 6 7 7
10 11 12 11 10 9 9 9 9 8 8 7 7 7 7 7 7 8 8 8 9 10 10 9 9 8 7 6 6 6 7 7 11 8 3 2 7 9 4 5 7 5 7
9 11 13 10 10 9 9 9 8 7 7 6 6 6 5 5 5 5 5 6 7 7 8 8 7 7 7 7 7 7 7 7 9 9 5 5 6 3 5 4 7 7 7
11 9 12 11 9 8 8 9 8 7 7 7 7 6 5 3 3 6 4 6 8 5 7 8 7 8 6 5 7 8 9 9 11 8 6 7 5 1 6 5 6 8 9
10 9 9 11 9 8 7 7 7 7 6 5 5 5 6 6 5 5 3 5 9 5 6 6 6 9 8 6 6 7 8 8 11 7 6 6 9 2 7 9 8 9 11
11 10 9 7 9 8 11 7 7 6 6 4 4 3 1 4 2 3 5 8 6 6 5 5 6 6 5 4 4 7 9 13 11 7 5 2 8 7 10 10 11 12 12
9 9 7 7 6 3 4 9 8 7 6 6 7 4 7 3 4 3 7 4 5 6 5 3 5 5 8 11 7 4 11 5 7 5 5 11 8 9 8 9 12 13 15
11 9 6 5 5 5 3 2 3 5 4 1 1 1 4 2 4 7 2 3 5 5 5 4 4 8 13 6 3 10 5 6 5 5 4 9 7 9 10 10 11 12 14
11 7 7 7 5 5 5 3 3 3 2 3 2 3 1 3 1 3 4 1 4 5 4 5 6 6 7 7 6 6 6 7 5 5 1 5 7 8 9 11 10 12 12
11 8 7 7 7 3 2 1 1 1 0 3 1 2 2 4 1 3 4 4 3 3 4 4 5 5 8 7 9 8 8 7 6 6 8 4 5 8 10 10 11 9 12
9 9 8 6 4 5 5 1 1 2 2 3 4 2 4 5 4 5 4 5 4 4 5 5 6 6 7 8 7 7 9 10 10 7 7 7 8 10 10 10 11 8 8
9 8 8 7 6 5 4 3 3 2 3 4 4 4 5 5 5 6 6 6 5 5 5 6 6 7 7 8 7 8 9 11 10 10 9 9 10 11 12 10 10 11 8
8 7 9 8 7 7 6 7 5 5 5 5 5 5 7 7 7 8 8 7 6 5 6 7 6 7 7 7 7 9 9 11 10 11 9 9 9 16 14 12 11 11 11
7 9 9 8 9 9 7 6 6 6 6 7 6 6 7 8 9 8 8 7 7 6 7 6 6 7 7 7 8 8 8 9 11 11 10 9 9 8 11 16 11 11 11
10 9 10 10 10 8 7 7 7 8 8 7 6 7 9 8 9 8 8 8 7 8 8 7 6 7 7 8 9 8 9 9 10 10 9 10 10 9 8 7 10 9 11
10 9 9 9 10 9 7 7 7 8 8 5 6 6 7 7 8 7 8 9 9 9 9 8 7 7 8 9 10 10 10 9 9 9 9 9 9 7 7 9 6 10 14
11 11 11 11 11 8 6 6 7 6 6 6 3 5 7 7 9 9 9 9 8 9 11 9 9 11 9 8 8 10 9 9 7 8 6 6 8 7 5 6 6 7 7
13 13 12 11 8 7 6 6 5 5 5 5 5 5 5 6 7 7 8 7 9 10 12 13 11 10 9 9 8 10 10 6 7 5 7 5 7 5 6 6 4 7 7
13 12 10 9 8 9 9 5 6 5 6 6 1 4 4 5 7 7 8 8 10 10 11 13 10 11 10 10 6 6 8 7 3 4 6 8 5 8 7 6 9 8 8
12 9 10 10 10 9 9 5 5 7 7 5 5 4 6 5 7 8 7 9 10 10 12 12 10 12 10 10 7 8 9 9 10 9 2 5 8 9 9 7 8 9 9
11 11 9 10 8 7 7 6 6 7 6 5 6 5 6 6 6 8 8 10 10 10 11 12 13 11 9 9 9 9 8 7 9 9 11 7 4 8 8 8 8 7 9
8 9 9 9 9 8 8 8 9 9 9 9 9 9 9 7 7 7 9 11 11 11 12 10 12 14 11 10 8 9 9 6 7 6 8 10 10 9 4 7 7 8 8
Wind_Direction
137 127 126 115 105 100 94 90 84 82 79 73 67 66 63 58 52 51 49 51 50 51 51 51 53 53 48 48 37 31 38 40 32 33 75 78 74 78 87 150 209 158 126
124 132 123 112 109 105 98 89 90 90 87 82 79 72 67 64 59 54 47 41 39 39 43 44 40 41 42 40 37 29 29 31 33 25 4 164 130 99 126 280 297 99 133
128 128 128 115 112 106 99 96 90 82 77 76 71 69 64 60 56 53 52 48 41 35 30 30 29 29 31 32 35 30 22 22 19 357 294 244 112 80 25 266 324 105 151
129 128 119 115 109 107 103 96 90 85 80 76 73 67 64 60 54 51 48 44 43 34 27 21 19 17 18 18 19 19 12 3 357 318 251 310 160 92 19 274 248 181 180
133 129 113 120 118 112 106 98 91 85 81 76 72 67 60 59 58 57 48 40 35 36 32 26 17 10 2 3 359 3 356 346 328 279 309 292 291 86 21 252 215 205 214
147 117 120 120 117 115 109 102 93 90 84 79 78 73 68 62 58 50 38 31 25 20 24 19 18 12 11 2 353 347 340 329 304 257 242 223 269 45 358 287 261 266 203
143 139 133 134 129 119 108 101 96 94 87 76 68 62 54 54 48 39 27 18 6 5 3 1 359 356 359 1 3 1 347 327 290 294 287 248 239 51 318 307 242 242 230
160 142 140 142 136 123 114 111 108 104 100 94 85 56 46 50 22 12 360 10 344 353 348 345 1 357 347 7 5 6 355 342 275 259 271 273 109 77 289 279 251 233 231
149 151 155 151 139 133 127 123 117 113 110 101 84 80 49 43 31 26 34 22 13 16 1 36 29 25 27 24 15 359 341 321 293 281 273 257 90 346 284 271 255 248 236
165 163 159 154 161 189 149 145 147 148 142 140 116 98 69 156 139 140 238 53 359 344 345 358 7 8 355 346 341 336 312 279 267 291 272 323 18 303 279 270 262 253 251
172 162 168 154 148 154 148 131 177 173 166 178 170 159 226 9 1 286 64 351 336 329 317 358 345 337 299 247 214 263 271 286 299 286 268 63 350 311 274 270 258 252 250
176 167 164 149 166 173 150 126 192 161 176 131 18 242 270 10 350 324 294 273 270 287 255 223 244 256 248 318 259 217 272 303 299 301 291 45 333 310 308 295 270 246 249
172 177 180 138 180 187 135 185 160 156 164 172 229 263 194 310 314 277 310 16 354 168 276 243 237 279 338 317 307 303 308 305 300 290 308 59 323 308 300 299 300 270 237
180 181 184 176 163 132 146 133 84 286 173 253 117 284 269 260 272 300 327 334 284 346 332 301 308 337 290 305 302 310 304 302 300 305 296 145 297 303 299 298 301 295 228
184 193 207 197 198 155 198 117 320 321 261 335 248 238 297 299 301 295 318 295 308 307 299 311 314 312 294 284 286 298 294 295 292 287 286 288 267 283 290 291 297 295 253
191 205 211 195 174 187 244 279 278 258 290 254 283 300 286 289 301 297 279 268 278 282 302 313 319 314 301 294 291 286 289 288 288 287 280 279 224 256 273 279 276 281 244
204 199 198 206 182 201 215 232 272 285 301 286 283 259 273 277 277 273 275 273 275 280 280 264 273 276 272 277 286 281 290 279 276 277 271 269 271 212 233 254 262 259 260
205 198 203 211 205 216 242 271 281 283 287 288 284 294 272 263 263 263 266 269 275 272 262 271 272 280 282 282 285 284 294 288 279 274 266 269 267 276 215 220 236 250 250
210 209 211 214 230 235 251 264 266 273 263 283 285 283 273 293 279 271 278 274 261 260 257 264 272 273 280 280 278 280 291 285 281 267 275 270 262 261 268 206 197 235 244
213 214 223 227 225 241 258 254 260 263 262 270 272 292 311 287 279 262 263 265 265 262 254 253 273 278 285 281 287 291 287 277 276 269 261 254 252 263 271 267 253 220 210
218 215 220 225 234 235 241 253 250 244 278 269 270 261 287 295 290 280 275 273 264 264 277 277 250 246 265 271 263 270 277 274 257 264 249 254 241 233 275 272 266 263 204
222 221 221 225 228 222 228 243 277 299 300 330 311 321 308 312 305 296 299 302 289 284 269 257 260 268 260 268 271 290 279 260 214 215 237 247 239 222 232 225 283 278 275
218 215 217 214 215 216 234 214 228 243 232 235 293 320 16 295 301 303 298 296 293 279 274 269 260 250 260 283 234 271 282 270 1 274 202 245 241 241 253 254 243 259 261
211 205 201 198 198 204 204 223 251 292 299 335 283 319 306 272 299 306 303 302 295 291 287 269 265 254 256 261 271 241 260 293 295 284 218 215 223 234 241 262 261 250 255
190 187 191 199 188 191 203 244 236 241 282 267 293 283 274 258 269 304 313 309 298 287 296 282 268 249 249 250 257 263 257 247 246 251 276 282 248 255 244 219 237 261 261
170 179 181 186 186 190 203 217 241 263 274 292 307 312 289 314 304 304 308 302 296 293 288 285 280 262 248 242 254 266 256 241 248 236 248 266 274 271 295 271 259 251 255